Location: Doughton_Park
(36.4250°N, 81.1830°W)
Time: 01:34:01
(UTC-05:00)

Hubble Space Telescope - Visible Passes

Search period start: 12 November 2019 00:00
Search period end: 22 November 2019 00:00
Orbit: 536 x 540 km, 28.5° (Epoch: 10 November)

Date Brightness Start Highest point End Pass type
(mag) Time Alt. Az. Time Alt. Az. Time Alt. Az.
17 Nov 3.7 19:49:40 10° SW 19:49:56 11° SSW 19:49:56 11° SSW visible
18 Nov 3.3 19:38:48 10° SW 19:40:00 16° SSW 19:40:00 16° SSW visible
19 Nov 3.2 17:49:07 10° S 17:50:46 12° SSE 17:52:26 10° SE visible
19 Nov 2.9 19:28:00 10° SW 19:30:01 20° SSW 19:30:01 20° SSW visible
20 Nov 3.1 17:37:47 10° SSW 17:40:04 14° SSE 17:42:21 10° SE visible
20 Nov 2.5 19:17:15 10° SW 19:20:03 24° S 19:20:03 24° S visible
21 Nov 2.3 19:06:32 10° SW 19:10:00 26° S 19:10:04 26° S visible
